When you browse on this site, cookies collect data to enhance your experience and personalize the content and advertising you see.
Visit our Privacy Policy to learn more. By continuing to use the site, you agree to this use of cookies and data.
  • In Hungary
  • List of Countries
  • For 7 days
  • Water Temperature
  • Satellite Maps
  • Weather Map
  • News
  • Weather Widgets
  • user-avatar
    Login

    Hourly Weather Kisangani

    Today, 22 January, Tuesday

    Time Temperature Precipitation Wind Pressure Humidity
    00:00 +26°C° 0 mm 1 mps 717 mmHg 74%
    01:00 +26°C° 0 mm 1 mps 717 mmHg 74%
    02:00 +25°C° 0 mm 1 mps 717 mmHg 75%
    03:00 +25°C° 0 mm 1 mps 717 mmHg 75%
    04:00 +25°C° 0 mm 1 mps 717 mmHg 76%
    05:00 +24°C° 0 mm 1 mps 717 mmHg 77%
    06:00 +25°C° 0 mm 1 mps 717 mmHg 75%
    07:00 +26°C° 0 mm 1 mps 718 mmHg 73%
    08:00 +26°C° 0 mm 1 mps 718 mmHg 71%
    09:00 +30°C° 0 mm 1 mps 718 mmHg 61%
    10:00 +33°C° 0 mm 1 mps 718 mmHg 51%
    11:00 +36°C° 0 mm 1 mps 719 mmHg 41%
    12:00 +37°C° 0 mm 1 mps 718 mmHg 36%
    13:00 +39°C° 0 mm 1 mps 717 mmHg 32%
    14:00 +40°C° 0 mm 1 mps 716 mmHg 28%
    15:00 +39°C° 0 mm 1 mps 716 mmHg 32%
    16:00 +36°C° 0 mm 1 mps 715 mmHg 37%
    17:00 +33°C° 0 mm 0 mps 715 mmHg 41%
    18:00 +31°C° 0 mm 0 mps 715 mmHg 45%
    19:00 +29°C° 0 mm 0 mps 715 mmHg 49%
    20:00 +28°C° 0 mm 0 mps 716 mmHg 53%
    21:00 +27°C° 0 mm 0 mps 716 mmHg 55%
    22:00 +29°C° 0 mm 1 mps 716 mmHg 57%
    23:00 +29°C° 0 mm 1 mps 717 mmHg 59%

    Tomorrow, 23 January, Wednesday

    Time Temperature Precipitation Wind Pressure Humidity
    00:00 +28°C° 0 mm 1 mps 716 mmHg 61%
    01:00 +27°C° 0 mm 1 mps 716 mmHg 64%
    02:00 +26°C° 0 mm 1 mps 715 mmHg 66%
    03:00 +26°C° 0 mm 1 mps 716 mmHg 69%
    04:00 +26°C° 0 mm 1 mps 716 mmHg 71%
    05:00 +25°C° 0 mm 1 mps 716 mmHg 74%
    06:00 +26°C° 0 mm 1 mps 717 mmHg 72%
    07:00 +27°C° 0 mm 1 mps 717 mmHg 71%
    08:00 +28°C° 0 mm 1 mps 718 mmHg 69%
    09:00 +30°C° 0 mm 1 mps 718 mmHg 61%
    10:00 +33°C° 0 mm 1 mps 718 mmHg 52%
    11:00 +35°C° 0 mm 1 mps 719 mmHg 43%
    12:00 +37°C° 0 mm 1 mps 718 mmHg 38%
    13:00 +39°C° 0 mm 1 mps 717 mmHg 33%
    14:00 +41°C° 0 mm 1 mps 716 mmHg 28%
    15:00 +40°C° 0 mm 1 mps 715 mmHg 29%
    16:00 +39°C° 0 mm 1 mps 715 mmHg 31%
    17:00 +35°C° 0 mm 0 mps 714 mmHg 33%
    18:00 +33°C° 0 mm 0 mps 715 mmHg 38%
    19:00 +33°C° 0 mm 1 mps 715 mmHg 43%
    20:00 +31°C° 0 mm 1 mps 716 mmHg 48%
    21:00 +30°C° 0 mm 1 mps 716 mmHg 51%
    22:00 +28°C° 0 mm 0 mps 716 mmHg 55%
    23:00 +27°C° 0 mm 0 mps 717 mmHg 59%

    Day after tomorrow, 24 January, Thursday

    Time Temperature Precipitation Wind Pressure Humidity
    00:00 +28°C° 0.3 mm 1 mps 717 mmHg 63%
    01:00 +28°C° 0.3 mm 1 mps 716 mmHg 67%
    02:00 +27°C° 0.3 mm 1 mps 716 mmHg 72%
    03:00 +27°C° 0 mm 1 mps 716 mmHg 74%
    04:00 +26°C° 0 mm 1 mps 716 mmHg 76%
    05:00 +26°C° 0 mm 2 mps 717 mmHg 78%
    06:00 +26°C° 0.1 mm 2 mps 717 mmHg 78%
    07:00 +27°C° 0.1 mm 2 mps 718 mmHg 78%
    08:00 +27°C° 0.1 mm 2 mps 719 mmHg 77%
    09:00 +29°C° 0 mm 2 mps 719 mmHg 68%
    10:00 +32°C° 0 mm 2 mps 719 mmHg 58%
    11:00 +35°C° 0 mm 2 mps 719 mmHg 49%
    12:00 +36°C° 0 mm 2 mps 718 mmHg 45%
    13:00 +37°C° 0 mm 2 mps 717 mmHg 41%
    14:00 +39°C° 0 mm 2 mps 716 mmHg 37%
    15:00 +36°C° 0 mm 1 mps 716 mmHg 42%
    16:00 +35°C° 0 mm 1 mps 715 mmHg 48%
    17:00 +31°C° 0 mm 0 mps 715 mmHg 53%
    18:00 +32°C° 0 mm 1 mps 715 mmHg 57%
    19:00 +31°C° 0 mm 1 mps 715 mmHg 61%
    20:00 +29°C° 0 mm 1 mps 716 mmHg 65%
    21:00 +29°C° 0.1 mm 1 mps 716 mmHg 68%
    22:00 +28°C° 0.1 mm 1 mps 717 mmHg 70%
    23:00 +28°C° 0.1 mm 1 mps 717 mmHg 73%

    25 January, Friday

    Time Temperature Precipitation Wind Pressure Humidity
    00:00 +27°C° 7.4 mm 1 mps 717 mmHg 81%
    01:00 +26°C° 7.4 mm 1 mps 717 mmHg 88%
    02:00 +25°C° 7.4 mm 1 mps 717 mmHg 96%
    03:00 +25°C° 1.9 mm 1 mps 717 mmHg 96%
    04:00 +25°C° 1.9 mm 1 mps 717 mmHg 96%
    05:00 +24°C° 1.9 mm 1 mps 717 mmHg 96%
    06:00 +25°C° 0 mm 1 mps 717 mmHg 94%
    07:00 +25°C° 0 mm 1 mps 718 mmHg 92%
    08:00 +25°C° 0 mm 2 mps 718 mmHg 90%
    09:00 +28°C° 0 mm 2 mps 718 mmHg 78%
    10:00 +30°C° 0 mm 2 mps 719 mmHg 66%
    11:00 +34°C° 0 mm 2 mps 719 mmHg 54%
    12:00 +35°C° 0 mm 2 mps 718 mmHg 49%
    13:00 +36°C° 0 mm 1 mps 717 mmHg 44%
    14:00 +37°C° 0 mm 1 mps 716 mmHg 39%
    15:00 +36°C° 0 mm 1 mps 716 mmHg 41%
    16:00 +36°C° 0 mm 1 mps 715 mmHg 43%
    17:00 +33°C° 0 mm 0 mps 715 mmHg 45%
    18:00 +31°C° 0 mm 0 mps 715 mmHg 50%
    19:00 +29°C° 0 mm 0 mps 716 mmHg 56%
    20:00 +27°C° 0 mm 0 mps 716 mmHg 61%
    21:00 +27°C° 0 mm 0 mps 716 mmHg 62%
    22:00 +27°C° 0 mm 0 mps 717 mmHg 64%
    23:00 +26°C° 0 mm 0 mps 717 mmHg 65%

    26 January, Saturday

    Time Temperature Precipitation Wind Pressure Humidity
    00:00 +25°C° 0.7 mm 0 mps 717 mmHg 75%
    01:00 +24°C° 0.7 mm 0 mps 716 mmHg 84%
    02:00 +22°C° 0.7 mm 0 mps 716 mmHg 94%
    03:00 +22°C° 0.2 mm 0 mps 716 mmHg 95%
    04:00 +24°C° 0.2 mm 1 mps 716 mmHg 95%
    05:00 +24°C° 0.2 mm 1 mps 717 mmHg 96%
    06:00 +25°C° 0 mm 1 mps 717 mmHg 95%
    07:00 +23°C° 0 mm 0 mps 718 mmHg 93%
    08:00 +24°C° 0 mm 0 mps 718 mmHg 91%
    09:00 +28°C° 0 mm 1 mps 719 mmHg 79%
    10:00 +30°C° 0 mm 1 mps 719 mmHg 67%
    11:00 +33°C° 0 mm 1 mps 719 mmHg 55%
    12:00 +34°C° 0 mm 1 mps 718 mmHg 50%
    13:00 +36°C° 0 mm 2 mps 718 mmHg 46%
    14:00 +38°C° 0 mm 2 mps 717 mmHg 41%
    15:00 +36°C° 0 mm 1 mps 716 mmHg 44%
    16:00 +35°C° 0 mm 1 mps 716 mmHg 48%
    17:00 +34°C° 0 mm 1 mps 715 mmHg 51%
    18:00 +33°C° 0 mm 1 mps 716 mmHg 56%
    19:00 +31°C° 0 mm 1 mps 716 mmHg 60%
    20:00 +30°C° 0 mm 1 mps 716 mmHg 65%
    21:00 +29°C° 0.1 mm 1 mps 717 mmHg 67%
    22:00 +28°C° 0.1 mm 1 mps 717 mmHg 70%
    23:00 +28°C° 0.1 mm 1 mps 717 mmHg 73%

    27 January, Sunday

    Time Temperature Precipitation Wind Pressure Humidity
    00:00 +27°C° 0 mm 1 mps 716 mmHg 74%
    01:00 +25°C° 0 mm 0 mps 716 mmHg 75%
    02:00 +24°C° 0 mm 0 mps 716 mmHg 76%
    03:00 +25°C° 0.8 mm 1 mps 716 mmHg 82%
    04:00 +25°C° 0.8 mm 1 mps 716 mmHg 89%
    05:00 +24°C° 0.8 mm 1 mps 716 mmHg 95%
    06:00 +24°C° 0 mm 1 mps 717 mmHg 94%
    07:00 +25°C° 0 mm 1 mps 718 mmHg 92%
    08:00 +25°C° 0 mm 1 mps 718 mmHg 90%
    09:00 +28°C° 0.3 mm 1 mps 719 mmHg 78%
    10:00 +31°C° 0.3 mm 1 mps 719 mmHg 65%
    11:00 +34°C° 0.3 mm 1 mps 719 mmHg 53%
    12:00 +35°C° 0 mm 1 mps 718 mmHg 48%
    13:00 +36°C° 0 mm 1 mps 717 mmHg 43%
    14:00 +37°C° 0 mm 1 mps 716 mmHg 38%
    15:00 +35°C° 0 mm 1 mps 716 mmHg 47%
    16:00 +32°C° 0 mm 1 mps 715 mmHg 57%
    17:00 +28°C° 0 mm 0 mps 715 mmHg 67%
    18:00 +29°C° 0 mm 1 mps 715 mmHg 68%
    19:00 +29°C° 0 mm 1 mps 715 mmHg 70%
    20:00 +28°C° 0 mm 1 mps 716 mmHg 72%
    21:00 +27°C° 0 mm 1 mps 716 mmHg 73%
    22:00 +27°C° 0 mm 1 mps 716 mmHg 73%
    23:00 +25°C° 0 mm 0 mps 716 mmHg 74%
    Show more